Weather History for KSDF - November, 2012

Change the Weather History Date:

Sunday, November 11, 2012

  Actual Average Record
Temperature  
Mean Temperature 63 °F 51 °F  
Max Temperature 72 °F 60 °F 79 °F (1902)
Min Temperature 53 °F 41 °F 21 °F (1957)
Degree Days  
Heating Degree Days 2 14  
Month to date heating degree days 179 139  
Since 1 July heating degree days 469 381  
Cooling Degree Days 0 0  
Month to date cooling degree days 0 0  
Year to date cooling degree days 1948 1609  
Growing Degree Days 12 (Base 50)    
Moisture  
Dew Point 41 °F    
Average Humidity 46    
Maximum Humidity 59    
Minimum Humidity 33    
Precipitation  
Precipitation 0.00 in 0.11 in 2.12 in (2004)
Month to date precipitation 0.20 1.19  
Year to date precipitation 37.99 38.68  
Snow  
Snow 0.00 in 0.00 in T in (1996)
Month to date snowfall 0.0 0.0  
Since 1 July snowfall 0.0 0.1  
Since 1 September snowfall 0.0 0.1  
Snow Depth 0.00 in    
Sea Level Pressure  
Sea Level Pressure 30.15 in    
Wind  
Wind Speed 14 mph (South)    
Max Wind Speed 25 mph    
Max Gust Speed 36 mph    
Visibility 10 miles    
Events      
T = Trace of Precipitation, MM = Missing Value Source: NWS Daily Summary

Daily Weather History Graph

Daily Weather History Graph

Search for Another Location

Airport or City:

Trip Planner

Search our weather history database for the weather conditions in past years. The results will help you decide how hot, cold, wet, or windy it might be!

Date:

Astronomy

Nov. 11, 2012 Rise Set
Actual Time 7:20 AM EST 5:33 PM EST
Civil Twilight 6:52 AM EST 6:01 PM EST
Nautical Twilight 6:20 AM EST 6:33 PM EST
Astronomical Twilight 5:49 AM EST 7:04 PM EST
Moon 4:35 AM EST (11/11) 3:55 PM EST (11/11)
Length of Visible Light 11h 09m
Length of Day
10h 13m
Waning Crescent, 7% of the Moon is Illuminated
Nov 11
Waning Crescent
Nov 13
New
Nov 20
First Quarter
Nov 28
Full
Dec 6
Last Quarter

Hourly Weather History & Observations

Time (EST) Temp. Dew Point Humidity Pressure Visibility Wind Dir Wind Speed Gust Speed Precip Events Conditions
12:56 AM 60.1 °F 39.9 °F 47% 30.17 in 10.0 mi South 9.2 mph - N/A   Partly Cloudy
1:56 AM 59.0 °F 39.0 °F 48% 30.17 in 10.0 mi South 9.2 mph - N/A   Partly Cloudy
2:56 AM 59.0 °F 37.9 °F 46% 30.16 in 10.0 mi South 12.7 mph - N/A   Mostly Cloudy
3:56 AM 57.9 °F 39.0 °F 49% 30.17 in 10.0 mi South 9.2 mph - N/A   Mostly Cloudy
4:56 AM 57.0 °F 39.0 °F 51% 30.18 in 10.0 mi South 13.8 mph - N/A   Mostly Cloudy
5:56 AM 57.0 °F 39.0 °F 51% 30.20 in 10.0 mi South 8.1 mph - N/A   Mostly Cloudy
6:56 AM 53.1 °F 39.0 °F 59% 30.22 in 10.0 mi SSE 6.9 mph - N/A   Mostly Cloudy
7:56 AM 54.0 °F 39.0 °F 57% 30.22 in 10.0 mi SSE 9.2 mph - N/A   Mostly Cloudy
8:56 AM 61.0 °F 37.9 °F 42% 30.24 in 10.0 mi South 13.8 mph - N/A   Mostly Cloudy
9:56 AM 62.1 °F 39.0 °F 43% 30.23 in 10.0 mi South 15.0 mph - N/A   Mostly Cloudy
10:56 AM 66.0 °F 42.1 °F 42% 30.22 in 10.0 mi South 16.1 mph 25.3 mph N/A   Mostly Cloudy
11:56 AM 68.0 °F 44.1 °F 42% 30.18 in 10.0 mi South 15.0 mph 23.0 mph N/A   Mostly Cloudy
12:56 PM 70.0 °F 44.1 °F 39% 30.15 in 10.0 mi South 17.3 mph 23.0 mph N/A   Mostly Cloudy
1:56 PM 69.1 °F 39.9 °F 35% 30.14 in 10.0 mi South 17.3 mph 26.5 mph N/A   Mostly Cloudy
2:56 PM 69.1 °F 39.9 °F 35% 30.11 in 10.0 mi South 17.3 mph - N/A   Mostly Cloudy
3:56 PM 68.0 °F 39.0 °F 35% 30.11 in 10.0 mi South 21.9 mph 25.3 mph N/A   Overcast
4:56 PM 68.0 °F 39.0 °F 35% 30.09 in 10.0 mi South 16.1 mph - N/A   Mostly Cloudy
5:56 PM 66.0 °F 39.0 °F 37% 30.08 in 10.0 mi SSE 11.5 mph - N/A   Overcast
6:56 PM 64.0 °F 41.0 °F 43% 30.09 in 10.0 mi SSE 9.2 mph - N/A   Overcast
7:56 PM 66.9 °F 44.1 °F 44% 30.07 in 10.0 mi South 17.3 mph 23.0 mph N/A   Overcast
8:56 PM 66.0 °F 46.0 °F 48% 30.06 in 10.0 mi SSE 23.0 mph 28.8 mph N/A   Overcast
9:56 PM 64.9 °F 46.9 °F 52% 30.06 in 10.0 mi South 18.4 mph 27.6 mph N/A   Overcast
10:56 PM 64.9 °F 48.0 °F 54% 30.06 in 10.0 mi South 18.4 mph 25.3 mph N/A   Overcast
11:56 PM 64.9 °F 48.0 °F 54% 30.07 in 10.0 mi South 20.7 mph 28.8 mph N/A   Mostly Cloudy